Flag for Poland Weather past 2 weeks in Lublin, Poland

Now
54 °F

Light rain. Overcast.


Feels Like: 54 °F
Forecast: 44 / 70 °F
Wind: 1 mph from North

Location: Lublin Radawiec

Current Time: Aug 21, 2014 at 12:38:11 PM

Latest Report: Aug 21, 2014 at 12:00 PM


Visibility: 6 mi

Pressure: 30.01 "Hg

Humidity: 94%

Dew point: 52 °F

Location of LublinLocation

Historic Weather in Lublin — Graph

°F

Lublin temperature yesterday

Maximum temperature yesterday: 69 °F (at 5:00 PM)
Minimum temperature yesterday: 52 °F (at 6:00 AM)
Average temperature yesterday: 60 °F

Past Weeks' High & Low Weather Summary

 TemperatureHumidityPressure
High85 °F (Aug 11, 4:00 PM)99% (Aug 9, 4:00 AM)30.02 "Hg (Aug 9, 4:00 AM)
Low52 °F (Aug 20, 6:00 AM)47% (Aug 18, 5:00 PM)29.61 "Hg (Aug 14, 2:00 AM)
Average65 °F81%29.91 "Hg
* Reported Aug 6 11:00 AM — Aug 21 11:00 AM, Lublin, Weather by CustomWeather, © 2014

Note: Actual official high and low records may vary slightly from our data, if they occured in-between our weather recording intervals... More about our weather records

Advertising

Lublin weather history for previous 24 hours

 ConditionsComfort  
Time TempWeatherWind HumidityBarometerVisibility
11:00 AM
Aug 21
54 °FLight rain. Overcast.1 mph94%30.02 "Hg6 mi
10:00 AM54 °FLight rain. Overcast.2 mph94%30.01 "Hg9 mi
9:00 AM54 °FSprinkles. Overcast.2 mph93%30.01 "Hg6 mi
8:00 AM54 °FOvercast.2 mph85%30.01 "Hg22 mi
6:00 AM55 °FOvercast.1 mph85%29.99 "Hg16 mi
5:00 AM56 °FLight rain. Overcast.1 mph85%30.00 "Hg14 mi
4:00 AM55 °FOvercast.2 mph85%30.01 "Hg18 mi
3:00 AM56 °FLight rain. Overcast.1 mph85%30.02 "Hg12 mi
2:00 AM57 °FLight rain. Overcast.2 mph76%30.02 "Hg10 mi
1:00 AM56 °FLight rain. Overcast.1 mph89%30.02 "Hg9 mi
12:00 AM55 °FOvercast.1 mph83%30.02 "Hg13 mi
11:00 PM
Aug 20
54 °FPassing clouds.1 mph82%30.01 "Hg12 mi
10:00 PM55 °FPassing clouds.1 mph84%30.01 "Hg12 mi
9:00 PM56 °FPassing clouds.1 mph82%30.00 "Hg18 mi
8:00 PM59 °FPassing clouds.2 mph76%29.99 "Hg19 mi
7:00 PM65 °FPartly sunny.2 mph62%29.98 "Hg25 mi
6:00 PM69 °FScattered clouds.3 mph53%29.96 "Hg19 mi
5:00 PM69 °FScattered clouds.3 mph54%29.96 "Hg19 mi
4:00 PM69 °FPartly sunny.3 mph58%29.96 "Hg19 mi
3:00 PM68 °FPartly sunny.3 mph60%29.96 "Hg25 mi
2:00 PM69 °FPartly sunny.3 mph60%29.96 "Hg19 mi
1:00 PM66 °FPartly sunny.3 mph70%29.96 "Hg17 mi
12:00 PM66 °FOvercast.5 mph72%29.96 "Hg16 mi
Weather by CustomWeather, © 2014

See weather overviewHow to use our weather pages